Location: Chmeln�
(49.6483°N, 14.9871°E)
Time: 03:14:36
(UTC+00:00)

ATLAS 3B R/B - Pass Details

Date: 18 September 2020
Orbit: 1016 x 1179 km, 63.8° (Epoch: 04 October)

Event Time Altitude Azimuth Distance (km) Brightness Sun altitude
Rises 17:39:58 0° 303° (WNW) 3,783 7.0 -6.3°
Reaches altitude 10° 17:43:04 10° 316° (NW) 2,847 5.9 -6.8°
Maximum altitude 17:48:36 26° 12° (NNE) 1,944 4.1 -7.7°
Drops below altitude 10° 17:54:16 10° 68° (ENE) 2,928 4.5 -8.6°
Enters shadow 17:55:34 - 74° (ENE) 3,311 4.7 -8.8°
